Torna al catalogo

STARLINK-34334

AttivoComunicazioniVLEO
NORAD 64273·PAYLOAD·🇺🇸 United States

Lanciato Jun 4, 2025 da Vandenberg Space Force Base

Loading…

Prossimi Passaggi (prossime 24 ore)

TLE

AggiornatoSource: CelesTrak SupGP

Epoca: Sep 15, 2026, 02:21 UTC

1 64273C 25120T   26258.09840278  .00045894  00000+0  13560-2 0  2587
2 64273  53.1575 314.6086 0001257  93.0387  61.8701 15.34366063    14

Traccia STARLINK-34334 in tempo reale con AllMySat

Download on the App Store